CST,Max TemperatureF,Mean TemperatureF,Min TemperatureF,Max Dew PointF,MeanDew PointF,Min DewpointF,Max Humidity, Mean Humidity, Min Humidity, Max Sea Level PressureIn, Mean Sea Level PressureIn, Min Sea Level PressureIn, Max VisibilityMiles, Mean VisibilityMiles, Min VisibilityMiles, Max Wind SpeedMPH, Mean Wind SpeedMPH, Max Gust SpeedMPH,PrecipitationIn, CloudCover, Events, WindDirDegrees
2013-11-1,61,47,33,38,31,24,76,53,27,30.18,29.97,29.78,10,10,10,22,10,31,T,1,,314
2013-11-2,63,46,29,31,26,23,79,52,23,30.32,30.18,29.96,10,10,9,12,6,20,0.00,0,,218
2013-11-3,73,59,45,34,32,30,58,42,21,29.94,29.68,29.50,10,10,8,32,15,46,T,0,,184
2013-11-4,58,46,33,36,33,30,86,62,40,30.10,29.93,29.61,10,10,10,23,12,34,0.00,0,,14
2013-11-5,44,38,32,45,39,30,100,92,76,30.21,29.98,29.87,10,7,1,23,10,32,0.69,7,Rain-Thunderstorm,16
2013-11-6,54,41,28,31,28,24,100,78,32,30.38,30.28,30.19,10,10,10,15,6,21,0.00,2,,284
2013-11-7,57,42,27,34,31,25,89,69,39,30.52,30.39,30.20,10,10,10,8,5,,0.00,0,,218
2013-11-8,71,55,38,38,34,30,76,57,26,30.14,29.90,29.75,10,10,10,15,7,22,0.00,0,,215
2013-11-9,63,48,33,36,34,31,89,63,31,30.34,30.17,29.95,10,10,10,12,7,,0.00,0,,48
2013-11-10,58,44,30,46,39,29,97,78,54,30.40,30.30,30.18,10,10,8,14,5,20,0.00,4,,185
2013-11-11,48,37,25,47,35,16,100,87,63,30.82,30.36,30.13,10,6,1,22,10,29,0.00,6,,347
2013-11-12,42,28,13,23,18,12,88,66,44,30.93,30.79,30.58,10,10,10,10,5,,0.00,0,,201
2013-11-13,64,46,27,40,32,23,85,64,36,30.56,30.25,29.96,10,10,10,20,8,30,0.00,0,,213
2013-11-14,60,45,29,38,35,28,92,70,44,29.99,29.94,29.88,10,10,10,24,10,31,0.00,0,,310
2013-11-15,64,45,26,38,33,24,96,67,35,29.91,29.72,29.46,10,10,10,16,6,22,0.00,0,,199
2013-11-16,64,52,40,37,32,27,71,53,25,29.45,29.38,29.29,10,10,10,12,7,16,0.00,2,,180
2013-11-17,57,41,24,35,21,11,81,49,17,30.16,29.77,29.30,10,10,10,37,11,54,0.00,0,,302
2013-11-18,61,42,23,22,18,13,78,45,17,30.30,30.21,30.15,10,10,10,17,8,24,0.00,0,,227
2013-11-19,62,45,28,39,30,22,78,55,32,30.13,29.91,29.75,10,10,9,22,8,32,0.00,0,,167
2013-11-20,69,53,37,35,34,32,86,63,27,29.89,29.79,29.72,10,10,10,13,4,21,0.00,0,,286
2013-11-21,45,33,20,34,18,11,80,70,60,30.70,30.35,29.93,10,10,7,25,20,36,T,7,Snow,4
2013-11-22,34,26,17,12,6,-8,68,48,16,30.80,30.73,30.68,10,10,10,18,11,25,0.00,1,,332
2013-11-23,32,24,16,17,13,11,78,62,46,30.88,30.78,30.70,10,10,10,13,6,,0.00,0,,50
2013-11-24,39,28,16,28,23,13,86,80,65,30.71,30.41,30.12,10,10,9,18,9,25,T,6,,177
2013-11-25,43,35,26,27,24,18,93,75,49,30.34,30.22,30.10,10,10,9,13,7,,0.00,6,,297
2013-11-26,39,25,10,21,16,7,84,65,41,30.51,30.44,30.33,10,10,10,20,10,30,0.00,0,,341
2013-11-27,53,31,9,32,20,6,88,67,35,30.50,30.27,30.09,10,10,10,17,7,23,0.00,0,,231
2013-11-28,41,31,20,26,22,16,92,75,53,30.47,30.36,30.12,10,10,7,12,4,,0.00,0,,41
2013-11-29,55,36,16,32,24,15,92,77,43,30.44,30.27,30.12,10,8,4,10,3,,0.00,0,,170
2013-11-30,66,44,21,32,24,20,92,61,22,30.21,30.15,30.09,10,10,7,9,5,,0.00,0,,280